Weather History for Wasilla, AK

Change the Weather History Date:

Thursday, April 26, 2012

  Actual Average Record
Temperature  
Mean Temperature 52 °F -  
Max Temperature 57 °F 52 °F 66 °F (2005)
Min Temperature 46 °F 31 °F 18 °F (1955)
Degree Days  
Heating Degree Days 14    
Growing Degree Days 2 (Base 50)    
Moisture  
Dew Point 24 °F    
Average Humidity 34    
Maximum Humidity 46    
Minimum Humidity 25    
Precipitation  
Precipitation 0.00 in - - ()
Sea Level Pressure  
Sea Level Pressure 29.60 in    
Wind  
Wind Speed 15 mph (NE)    
Max Wind Speed 26 mph    
Max Gust Speed 37 mph    
Visibility 10 miles    
Events      
Averages and records for this station are not official NWS values.
T = Trace of Precipitation, MM = Missing Value Source: NWS Daily Summary

Daily Weather History Graph

Daily Weather History Graph

Search for Another Location

Airport:

Trip Planner

Search our weather history database for the weather conditions in past years. The results will help you decide how hot, cold, wet, or windy it might be!

Date:

Astronomy

Apr. 26, 2012 Rise Set
Actual Time 6:00 AM AKDT 9:53 PM AKDT
Civil Twilight 5:05 AM AKDT 10:49 PM AKDT
Nautical Twilight 3:38 AM AKDT 12:18 AM AKDT
Astronomical Twilight Sun does not rise Sun does not rise
Moon 9:06 AM AKDT (4/26) 2:49 AM AKDT (4/26)
Length of Visible Light 17h 44m
Length of Day
15h 53m
Waxing Crescent, 25% of the Moon is Illuminated
Apr 26
Waxing Crescent
Apr 29
First Quarter
May 5
Full
May 12
Last Quarter
May 20
New

Hourly Weather History & Observations

Time (AKDT) Temp. Windchill Dew Point Humidity Pressure Visibility Wind Dir Wind Speed Gust Speed Precip Events Conditions
12:16 AM 46.4 °F 41.1 °F 24.8 °F 43% 29.66 in 10.0 mi NE 11.5 mph - N/A   Clear
12:36 AM 48.2 °F - 24.8 °F 40% 29.66 in 10.0 mi NE 10.4 mph 17.3 mph N/A   Clear
12:56 AM 48.2 °F - 23.0 °F 37% 29.65 in 10.0 mi NE 11.5 mph 16.1 mph N/A   Clear
1:16 AM 48.2 °F - 21.2 °F 34% 29.65 in 10.0 mi NE 10.4 mph 16.1 mph N/A   Clear
1:36 AM 48.2 °F - 21.2 °F 34% 29.65 in 10.0 mi NE 13.8 mph - N/A   Clear
1:56 AM 48.2 °F - 23.0 °F 37% 29.65 in 10.0 mi NE 11.5 mph 18.4 mph N/A   Clear
2:16 AM 46.4 °F 40.4 °F 24.8 °F 43% 29.64 in 10.0 mi NNE 13.8 mph 21.9 mph N/A   Clear
2:36 AM 46.4 °F 39.5 °F 24.8 °F 43% 29.64 in 10.0 mi NE 17.3 mph 24.2 mph N/A   Clear
2:56 AM 46.4 °F 39.5 °F 24.8 °F 43% 29.63 in 10.0 mi NE 17.3 mph 24.2 mph N/A   Clear
3:16 AM 46.4 °F 39.8 °F 24.8 °F 43% 29.63 in 10.0 mi NE 16.1 mph 25.3 mph N/A   Clear
3:36 AM 46.4 °F 40.7 °F 24.8 °F 43% 29.63 in 10.0 mi NNE 12.7 mph 21.9 mph N/A   Clear
3:56 AM 46.4 °F 40.4 °F 24.8 °F 43% 29.62 in 10.0 mi NE 13.8 mph 20.7 mph N/A   Clear
4:16 AM 46.4 °F 39.5 °F 26.6 °F 46% 29.62 in 10.0 mi NE 17.3 mph 24.2 mph N/A   Clear
4:36 AM 46.4 °F 40.1 °F 26.6 °F 46% 29.62 in 10.0 mi NE 15.0 mph 24.2 mph N/A   Clear
4:56 AM 46.4 °F 39.0 °F 24.8 °F 43% 29.61 in 10.0 mi NE 19.6 mph 27.6 mph N/A   Clear
5:16 AM 46.4 °F 40.1 °F 24.8 °F 43% 29.61 in 10.0 mi NE 15.0 mph 25.3 mph N/A   Clear
5:36 AM 46.4 °F 40.1 °F 24.8 °F 43% 29.61 in 10.0 mi NE 15.0 mph 25.3 mph N/A   Clear
5:56 AM 46.4 °F 39.8 °F 24.8 °F 43% 29.61 in 10.0 mi NE 16.1 mph 27.6 mph N/A   Clear
6:16 AM 46.4 °F 39.0 °F 24.8 °F 43% 29.61 in 10.0 mi NE 19.6 mph 27.6 mph N/A   Clear
6:36 AM 46.4 °F 39.2 °F 24.8 °F 43% 29.60 in 10.0 mi NE 18.4 mph 25.3 mph N/A   Clear
6:56 AM 46.4 °F 39.0 °F 24.8 °F 43% 29.60 in 10.0 mi NE 19.6 mph 27.6 mph N/A   Clear
7:16 AM 48.2 °F - 24.8 °F 40% 29.60 in 10.0 mi NE 17.3 mph 24.2 mph N/A   Clear
7:36 AM 48.2 °F - 24.8 °F 40% 29.60 in 10.0 mi NE 20.7 mph 26.5 mph N/A   Clear
7:56 AM 48.2 °F - 24.8 °F 40% 29.60 in 10.0 mi NE 18.4 mph 25.3 mph N/A   Clear
8:16 AM 48.2 °F - 24.8 °F 40% 29.60 in 10.0 mi ENE 16.1 mph 26.5 mph N/A   Clear
8:36 AM 50.0 °F - 24.8 °F 37% 29.60 in 10.0 mi ENE 17.3 mph 28.8 mph N/A   Clear
8:56 AM 51.8 °F - 24.8 °F 35% 29.60 in 10.0 mi ENE 19.6 mph 32.2 mph N/A   Clear
9:16 AM 51.8 °F - 24.8 °F 35% 29.59 in 10.0 mi ENE 15.0 mph 26.5 mph N/A   Clear
9:36 AM 51.8 °F - 23.0 °F 33% 29.60 in 10.0 mi ENE 17.3 mph 25.3 mph N/A   Clear
9:56 AM 51.8 °F - 24.8 °F 35% 29.60 in 10.0 mi ENE 20.7 mph 32.2 mph N/A   Clear
10:16 AM 53.6 °F - 23.0 °F 30% 29.59 in 10.0 mi ENE 13.8 mph 26.5 mph N/A   Clear
10:36 AM 53.6 °F - 24.8 °F 33% 29.59 in 10.0 mi ENE 18.4 mph 27.6 mph N/A   Clear
10:56 AM 53.6 °F - 23.0 °F 30% 29.59 in 10.0 mi ENE 16.1 mph 29.9 mph N/A   Clear
11:16 AM 53.6 °F - 24.8 °F 33% 29.59 in 10.0 mi ENE 21.9 mph 31.1 mph N/A   Clear
11:36 AM 55.4 °F - 24.8 °F 31% 29.59 in 10.0 mi ENE 18.4 mph 27.6 mph N/A   Clear
11:56 AM 53.6 °F - 23.0 °F 30% 29.59 in 10.0 mi NE 26.5 mph 34.5 mph N/A   Clear
12:16 PM 55.4 °F - 23.0 °F 29% 29.59 in 10.0 mi NE 24.2 mph 35.7 mph N/A   Clear
12:36 PM 55.4 °F - 23.0 °F 29% 29.58 in 10.0 mi ENE 18.4 mph 29.9 mph N/A   Clear
12:56 PM 55.4 °F - 23.0 °F 29% 29.58 in 10.0 mi ENE 18.4 mph 36.8 mph N/A   Clear
1:16 PM 55.4 °F - 23.0 °F 29% 29.58 in 10.0 mi NE 20.7 mph 32.2 mph N/A   Clear
1:36 PM 57.2 °F - 24.8 °F 29% 29.59 in 10.0 mi ENE 17.3 mph 26.5 mph N/A   Clear
1:56 PM 55.4 °F - 23.0 °F 29% 29.58 in 10.0 mi NE 21.9 mph 33.4 mph N/A   Clear
2:16 PM 57.2 °F - 21.2 °F 25% 29.58 in 10.0 mi ENE 19.6 mph 32.2 mph N/A   Clear
2:36 PM 57.2 °F - 21.2 °F 25% 29.57 in 10.0 mi ENE 19.6 mph 29.9 mph N/A   Clear
2:56 PM 57.2 °F - 21.2 °F 25% 29.56 in 10.0 mi ENE 15.0 mph 26.5 mph N/A   Clear
3:16 PM 57.2 °F - 21.2 °F 25% 29.57 in 10.0 mi NE 13.8 mph 27.6 mph N/A   Clear
3:36 PM 57.2 °F - 21.2 °F 25% 29.57 in 10.0 mi NE 17.3 mph 27.6 mph N/A   Clear
3:56 PM 57.2 °F - 21.2 °F 25% 29.57 in 10.0 mi ENE 17.3 mph 27.6 mph N/A   Clear
4:16 PM 57.2 °F - 21.2 °F 25% 29.57 in 10.0 mi NE 13.8 mph 24.2 mph N/A   Clear
4:36 PM 57.2 °F - 21.2 °F 25% 29.56 in 10.0 mi NE 13.8 mph 29.9 mph N/A   Clear
4:56 PM 57.2 °F - 21.2 °F 25% 29.56 in 10.0 mi ENE 13.8 mph 26.5 mph N/A   Clear
5:16 PM 57.2 °F - 21.2 °F 25% 29.56 in 10.0 mi NE 13.8 mph 25.3 mph N/A   Clear
5:36 PM 57.2 °F - 23.0 °F 27% 29.56 in 10.0 mi NE 18.4 mph 23.0 mph N/A   Clear
5:56 PM 57.2 °F - 23.0 °F 27% 29.56 in 10.0 mi NE 16.1 mph 21.9 mph N/A   Clear
6:16 PM 57.2 °F - 21.2 °F 25% 29.57 in 10.0 mi NE 21.9 mph 27.6 mph N/A   Clear
6:36 PM 57.2 °F - 23.0 °F 27% 29.57 in 10.0 mi ENE 18.4 mph 25.3 mph N/A   Clear
6:56 PM 57.2 °F - 23.0 °F 27% 29.56 in 10.0 mi ENE 12.7 mph 21.9 mph N/A   Clear
7:16 PM 55.4 °F - 23.0 °F 29% 29.57 in 10.0 mi ENE 16.1 mph 21.9 mph N/A   Clear
7:36 PM 55.4 °F - 23.0 °F 29% 29.57 in 10.0 mi ENE 13.8 mph 20.7 mph N/A   Clear
7:56 PM 55.4 °F - 23.0 °F 29% 29.57 in 10.0 mi ENE 12.7 mph 23.0 mph N/A   Clear
8:16 PM 55.4 °F - 23.0 °F 29% 29.57 in 10.0 mi ENE 9.2 mph 20.7 mph N/A   Clear
8:36 PM 53.6 °F - 23.0 °F 30% 29.58 in 10.0 mi ENE 9.2 mph 17.3 mph N/A   Clear
8:56 PM 53.6 °F - 23.0 °F 30% 29.58 in 10.0 mi ENE 11.5 mph 19.6 mph N/A   Clear
9:16 PM 53.6 °F - 23.0 °F 30% 29.59 in 10.0 mi ENE 9.2 mph 17.3 mph N/A   Clear
9:36 PM 53.6 °F - 24.8 °F 33% 29.59 in 10.0 mi ENE 9.2 mph - N/A   Clear
9:56 PM 51.8 °F - 24.8 °F 35% 29.59 in 10.0 mi ENE 6.9 mph - N/A   Clear
10:16 PM 51.8 °F - 24.8 °F 35% 29.60 in 10.0 mi ENE 8.1 mph - N/A   Clear
10:36 PM 51.8 °F - 24.8 °F 35% 29.60 in 10.0 mi ENE 10.4 mph - N/A   Clear
10:56 PM 50.0 °F - 24.8 °F 37% 29.61 in 10.0 mi ENE 6.9 mph - N/A   Clear
11:16 PM 50.0 °F - 24.8 °F 37% 29.61 in 10.0 mi ENE 8.1 mph - N/A   Clear
11:36 PM 48.2 °F - 24.8 °F 40% 29.61 in 10.0 mi ENE 6.9 mph 16.1 mph N/A   Clear
11:56 PM 48.2 °F - 24.8 °F 40% 29.61 in 10.0 mi East 4.6 mph - N/A   Clear